AAY1436 KMLB-KPGD

Flight info

Callsign AAY1436
Flight time 0h 24m
Altitude 16000
Route DIDDY BLAAK
Aircraft A320/M-SDE3FGHIRWY/LB1

Departure

Time 2026-04-29 01:53
Airport Melbourne Orlando International Airport (KMLB)

Arrival

Time 2026-04-29 02:18
Airport Punta Gorda Airport (KPGD)
Time Latitude Longitude Altitude Speed Heading
2026-04-29 01:36 28.09886 -80.62991 32 ft 0 kts 301°
2026-04-29 01:45 28.09886 -80.62992 32 ft 0 kts 301°
2026-04-29 01:48 28.09884 -80.62987 31 ft 3 kts 301°
2026-04-29 01:48 28.09870 -80.62961 30 ft 3 kts 300°
2026-04-29 01:48 28.09858 -80.62941 29 ft 4 kts 331°
2026-04-29 01:48 28.09835 -80.62939 30 ft 4 kts 20°
2026-04-29 01:49 28.09816 -80.62947 32 ft 0 kts 15°
2026-04-29 01:50 28.09851 -80.62936 29 ft 10 kts 14°
2026-04-29 01:51 28.09918 -80.62928 32 ft 9 kts 355°
2026-04-29 01:51 28.09966 -80.62955 33 ft 6 kts 311°
2026-04-29 01:51 28.09982 -80.63035 34 ft 13 kts 280°
2026-04-29 01:51 28.10043 -80.63072 35 ft 10 kts
2026-04-29 01:52 28.10113 -80.63042 34 ft 12 kts 30°
2026-04-29 01:52 28.10196 -80.62980 31 ft 17 kts 19°
2026-04-29 01:52 28.10276 -80.63004 32 ft 11 kts 294°
2026-04-29 01:52 28.10274 -80.63095 31 ft 19 kts 266°
2026-04-29 01:53 28.10250 -80.63555 33 ft 98 kts 267°
2026-04-29 01:53 28.10206 -80.64572 35 ft 157 kts 266°
2026-04-29 01:53 28.10134 -80.65878 403 ft 173 kts 267°
2026-04-29 01:53 28.10073 -80.67297 954 ft 184 kts 266°
2026-04-29 01:54 28.09992 -80.68763 1524 ft 192 kts 266°
2026-04-29 01:54 28.09690 -80.70260 2081 ft 205 kts 238°
2026-04-29 01:54 28.08606 -80.71389 2444 ft 226 kts 200°
2026-04-29 01:54 28.07000 -80.71823 2895 ft 249 kts 189°
2026-04-29 01:55 28.05224 -80.72197 3513 ft 266 kts 188°
2026-04-29 01:55 28.03386 -80.72585 4427 ft 271 kts 191°
2026-04-29 01:55 28.01541 -80.72976 5361 ft 274 kts 191°
2026-04-29 01:55 27.99649 -80.73382 6268 ft 279 kts 191°
2026-04-29 01:56 27.97729 -80.73797 7133 ft 283 kts 190°
2026-04-29 01:56 27.95767 -80.74222 7900 ft 290 kts 190°
2026-04-29 01:56 27.93763 -80.74656 8681 ft 296 kts 189°
2026-04-29 01:56 27.91715 -80.75101 9440 ft 303 kts 189°
2026-04-29 01:57 27.89615 -80.75559 10151 ft 312 kts 189°
2026-04-29 01:57 27.87404 -80.76037 10405 ft 335 kts 189°
2026-04-29 01:57 27.85033 -80.76549 10625 ft 359 kts 189°
2026-04-29 01:57 27.82526 -80.77090 11030 ft 372 kts 189°
2026-04-29 01:58 27.79954 -80.77648 11643 ft 379 kts 190°
2026-04-29 01:58 27.77346 -80.78217 11923 ft 382 kts 190°
2026-04-29 01:58 27.74731 -80.78785 11987 ft 383 kts 190°
2026-04-29 01:58 27.72115 -80.79351 11998 ft 385 kts 190°
2026-04-29 01:59 27.69394 -80.79940 11999 ft 407 kts 190°
2026-04-29 01:59 27.66590 -80.80546 11997 ft 412 kts 190°
2026-04-29 01:59 27.63803 -80.81149 11997 ft 414 kts 190°
2026-04-29 01:59 27.60970 -80.81763 11997 ft 414 kts 190°
2026-04-29 02:00 27.58136 -80.82379 11998 ft 414 kts 190°
2026-04-29 02:00 27.55308 -80.82993 12000 ft 414 kts 190°
2026-04-29 02:00 27.52477 -80.83608 11997 ft 414 kts 190°
2026-04-29 02:00 27.49642 -80.84221 11997 ft 414 kts 190°
2026-04-29 02:01 27.46813 -80.84828 11995 ft 414 kts 190°
2026-04-29 02:01 27.43984 -80.85434 11994 ft 414 kts 190°
2026-04-29 02:01 27.41155 -80.86042 11992 ft 414 kts 190°
2026-04-29 02:01 27.38327 -80.86651 11992 ft 414 kts 190°
2026-04-29 02:02 27.35507 -80.87301 11989 ft 414 kts 194°
2026-04-29 02:02 27.32827 -80.88477 11992 ft 414 kts 208°
2026-04-29 02:02 27.30447 -80.90299 11992 ft 413 kts 221°
2026-04-29 02:02 27.28527 -80.92697 11990 ft 412 kts 237°
2026-04-29 02:03 27.27262 -80.95510 11995 ft 410 kts 250°
2026-04-29 02:03 27.26231 -80.98504 11991 ft 410 kts 251°
2026-04-29 02:03 27.25216 -81.01496 11991 ft 410 kts 251°
2026-04-29 02:03 27.24203 -81.04496 11991 ft 410 kts 251°
2026-04-29 02:04 27.23193 -81.07497 11990 ft 410 kts 251°
2026-04-29 02:04 27.22183 -81.10499 11990 ft 410 kts 251°
2026-04-29 02:04 27.21178 -81.13488 11990 ft 410 kts 251°
2026-04-29 02:04 27.20164 -81.16488 11990 ft 410 kts 251°
2026-04-29 02:05 27.19149 -81.19479 11987 ft 410 kts 251°
2026-04-29 02:05 27.18133 -81.22471 11754 ft 409 kts 251°
2026-04-29 02:05 27.17132 -81.25414 11416 ft 407 kts 251°
2026-04-29 02:05 27.16121 -81.28387 11058 ft 406 kts 250°
2026-04-29 02:06 27.15117 -81.31346 10706 ft 405 kts 250°
2026-04-29 02:06 27.14120 -81.34291 10355 ft 404 kts 250°
2026-04-29 02:06 27.13117 -81.37238 10014 ft 402 kts 250°
2026-04-29 02:06 27.12118 -81.40165 9635 ft 400 kts 250°
2026-04-29 02:07 27.11459 -81.42093 9378 ft 398 kts 250°
2026-04-29 02:07 27.10472 -81.44972 9006 ft 393 kts 250°
2026-04-29 02:07 27.09493 -81.47826 8629 ft 389 kts 250°
2026-04-29 02:07 27.08607 -81.50670 8263 ft 381 kts 258°
2026-04-29 02:08 27.08193 -81.53494 7902 ft 352 kts 263°
2026-04-29 02:08 27.07862 -81.56123 7542 ft 328 kts 263°
2026-04-29 02:08 27.07562 -81.58582 7192 ft 308 kts 263°
2026-04-29 02:08 27.07292 -81.60893 6838 ft 290 kts 263°
2026-04-29 02:09 27.07047 -81.63079 6488 ft 275 kts 263°
2026-04-29 02:09 27.06822 -81.65177 6119 ft 269 kts 263°
2026-04-29 02:09 27.06615 -81.67254 5753 ft 266 kts 263°
2026-04-29 02:09 27.06444 -81.69317 5390 ft 266 kts 263°
2026-04-29 02:10 27.06295 -81.71382 5025 ft 265 kts 264°
2026-04-29 02:10 27.06141 -81.73431 4663 ft 263 kts 263°
2026-04-29 02:10 27.06000 -81.75482 4284 ft 263 kts 264°
2026-04-29 02:10 27.05854 -81.77528 3909 ft 264 kts 263°
2026-04-29 02:11 27.05704 -81.79577 3555 ft 265 kts 264°
2026-04-29 02:11 27.05554 -81.81641 3191 ft 265 kts 264°
2026-04-29 02:11 27.05405 -81.83674 3008 ft 263 kts 263°
2026-04-29 02:11 27.05250 -81.85651 3013 ft 246 kts 263°
2026-04-29 02:12 27.05113 -81.87531 3016 ft 238 kts 264°
2026-04-29 02:12 27.04977 -81.89363 3020 ft 233 kts 263°
2026-04-29 02:12 27.04844 -81.91186 3022 ft 235 kts 263°
2026-04-29 02:12 27.04713 -81.93007 3027 ft 234 kts 263°
2026-04-29 02:13 27.04584 -81.94832 3031 ft 235 kts 264°
2026-04-29 02:13 27.04453 -81.96645 3025 ft 233 kts 263°
2026-04-29 02:13 27.04323 -81.98468 3025 ft 235 kts 263°
2026-04-29 02:13 27.04192 -82.00297 3027 ft 234 kts 264°
2026-04-29 02:14 27.04062 -82.02104 3019 ft 228 kts 263°
2026-04-29 02:14 27.03890 -82.03824 2994 ft 215 kts 255°
2026-04-29 02:14 27.03391 -82.05334 2951 ft 198 kts 235°
2026-04-29 02:14 27.02521 -82.06381 2858 ft 177 kts 206°
2026-04-29 02:15 27.01397 -82.06705 2613 ft 163 kts 168°
2026-04-29 02:15 27.00436 -82.06187 2352 ft 152 kts 136°
2026-04-29 02:15 26.99662 -82.05402 2111 ft 144 kts 134°
2026-04-29 02:15 26.98972 -82.04648 1824 ft 134 kts 130°
2026-04-29 02:16 26.98287 -82.03940 1440 ft 134 kts 138°
2026-04-29 02:16 26.97520 -82.03342 1179 ft 134 kts 142°
2026-04-29 02:16 26.96711 -82.02815 1039 ft 134 kts 144°
2026-04-29 02:16 26.95925 -82.02277 909 ft 131 kts 142°
2026-04-29 02:17 26.95149 -82.01740 772 ft 134 kts 144°
2026-04-29 02:17 26.94332 -82.01226 597 ft 137 kts 146°
2026-04-29 02:17 26.93518 -82.00674 419 ft 136 kts 146°
2026-04-29 02:17 26.92705 -82.00140 180 ft 135 kts 147°
2026-04-29 02:18 26.91901 -81.99607 34 ft 128 kts 147°
2026-04-29 02:18 26.91255 -81.99179 30 ft 84 kts 149°
2026-04-29 02:18 26.91049 -81.99054 29 ft 18 kts 173°
2026-04-29 02:18 26.90986 -81.99115 31 ft 9 kts 266°
2026-04-29 02:19 26.90997 -81.99155 30 ft 4 kts 298°
2026-04-29 02:19 26.91011 -81.99180 29 ft 5 kts 304°
2026-04-29 02:19 26.91045 -81.99223 30 ft 8 kts 318°
2026-04-29 02:19 26.91089 -81.99254 31 ft 10 kts 332°
2026-04-29 02:20 26.91173 -81.99305 32 ft 14 kts 328°
2026-04-29 02:20 26.91252 -81.99361 31 ft 13 kts 327°
2026-04-29 02:20 26.91325 -81.99413 31 ft 12 kts 327°
2026-04-29 02:20 26.91393 -81.99458 31 ft 11 kts 331°
2026-04-29 02:21 26.91457 -81.99497 30 ft 10 kts 331°
2026-04-29 02:21 26.91516 -81.99535 30 ft 10 kts 328°
2026-04-29 02:21 26.91572 -81.99576 30 ft 9 kts 326°
2026-04-29 02:21 26.91625 -81.99615 30 ft 9 kts 327°
2026-04-29 02:22 26.91674 -81.99651 30 ft 8 kts 327°
2026-04-29 02:22 26.91720 -81.99685 30 ft 8 kts 327°
2026-04-29 02:22 26.91745 -81.99727 30 ft 6 kts 274°
2026-04-29 02:22 26.91726 -81.99759 30 ft 4 kts 210°
2026-04-29 02:23 26.91724 -81.99762 30 ft 0 kts 227°